07:26
Airports
History
Links
Donate
Help keep this website running!
PayPal
Bitcoin
This page is community maintained. The information is intended for PC simulator navigation or reference.
Always use approved charts for navigation.
SJQT
Fazenda Haras RPC
Fazenda Haras RPC (SJQT)
Nova Lima, Minas Gerais, Brazil (34000)
4
Lat/Lng:20° 10' 7" S / 43° 55' 37" W
-20.168611 / -43.926944
Elevation:4209'ft / 1283mMSL
ID / ICAO:SJQT
Runways:1
Longest:16-34
Grass 692m / 2,270ft
Nearby Weather07:00 GMT 2018-02-21
Nearby weather at SBBH, Pampulha located 22.0 nautical miles from SJQT
Altimeter: 29.94
Visibility: 6.2 statute miles
Wind: 2 knots (from 070°)
Temp: 21°c / 70°f
Humidity: 88.4%

METAR: SBBH 210700Z 07002KT 9999 SCT035 SCT100 21/19 Q1014

(Powered by phpweather)
Runway 16 / 34
Dimensions:692 x 21m 2270' x 69'ft
Surface:Grass
Runway 16 [A]Runway 34 [B]
Heading:139°TH 319°TH
Lat:
Lng:
20° 9' 58.42"S
43° 55' 44.76"W
20° 10' 15.58"S
43° 55' 29.24"W
User Notes and Comments
20° 10' 7" S / 43° 55' 37" W
Distance To
Airport ID:
Nearby Airports
(U) CARLOS PRATES 18.4 NM
SBPR NNW 346°
(C) Pampulha 22.0 NM
SBBH ( WX ) N 355°
(C) LAGOA SANTA 35.1 NM
SBLS N
(C) Tancredo Neves 37.1 NM
SBCF ( WX ) N 355°
(U) Conselheiro Lafaiete 40.3 NM
SNKF SSE 168°
4 Fazenda das Perobas 48.4 NM
SWJX NNW 341°
(C) Para De Minas 49.2 NM
SNPA WNW 297°
VFR Chart
Flight Planning at SkyVector.com